Location: Katowice
(50.2611°N, 19.0242°E)
Time: 08:32:46
(UTC+02:00)

A-11 Canister half - Pass Details

Date: 27 July 2019
Orbit: 1526 x 1683 km, 47.3° (Epoch: 23 August)

Event Time Altitude Azimuth Distance (km) Brightness Sun altitude
Rises 17:55:44 0° 191° (SSW) 4,922 11.8 23.3°
Reaches altitude 10° 17:59:46 10° 178° (S) 3,934 11.2 22.6°
Maximum altitude 18:07:04 23° 131° (SE) 3,002 10.3 21.5°
Drops below altitude 10° 18:14:16 10° 84° (E) 3,897 10.6 20.3°
Sets 18:18:12 0° 72° (ENE) 4,864 11.1 19.7°
